Location: ??????
(44.1167°N, 135.4167°E)
Time: 00:04:24
(UTC+00:00)

Daily predictions for brighter satellites

Satellite Brightness Start Highest point End
(mag) Time Altitude Azimuth Time Altitude Azimuth Time Altitude Azimuth
NOSS 0 Rocket 4.0 11:06:02 10° NNW 11:12:18 81° ENE 11:18:28 10° SSE
Cosmos 2227 Rocket 3.1 11:09:47 10° SSE 11:14:26 27° ESE 11:19:05 10° NE
MOS 1-B 4.4 11:11:34 10° SSE 11:17:18 72° ENE 11:23:04 10° N
Cosmos 2263 Rocket 3.9 11:15:30 10° SE 11:18:21 14° E 11:21:13 10° ENE
NOSS 3-4 (A) 3.1 11:13:16 10° SSW 11:18:31 66° ESE 11:24:13 10° NE
NOSS 3-4 (C) 3.1 11:13:24 10° SSW 11:18:37 65° ESE 11:24:19 10° NE
Lacrosse 4 Rocket 3.2 11:16:51 10° N 11:20:04 21° NE 11:23:18 10° E
ERS-1 Rocket 3.2 11:17:20 10° SSE 11:22:14 59° ENE 11:27:10 10° N
Cosmos 1666 Rocket 4.2 11:19:20 10° N 11:23:32 40° ENE 11:27:42 10° SSE
Cosmos 1980 3.9 11:20:32 10° NNW 11:26:11 64° ENE 11:31:46 10° SE
ATLAS CENTAUR R/B 2.6 11:24:32 10° NNW 11:27:52 27° NE 11:31:07 10° ESE
CZ-4B R/B 3.6 11:24:06 10° S 11:29:21 62° WSW 11:34:36 10° NNW
COSMOS 2455 3.3 11:23:37 10° NNW 11:29:33 53° NE 11:35:25 10° SE
Okean-O 2.7 11:27:19 10° SSE 11:31:39 65° ENE 11:36:00 10° N
Cosmos 1633 Rocket 3.6 11:28:58 10° N 11:33:03 40° ENE 11:37:07 10° SSE
Cosmos 1727 Rocket 4.2 11:29:31 10° SSE 11:35:28 53° E 11:41:27 10° NNE
Cosmos 1758 4.4 11:32:54 10° NNE 11:36:03 25° ENE 11:38:54 11° SE
Cosmos 1300 2.4 11:33:07 10° NNW 11:36:14 69° W 11:39:20 10° S
ARIANE 6 FM1 Upper Stage 2.7 11:33:11 10° NW 11:37:20 89° WSW 11:41:19 11° SE
USA 186 4.2 11:41:03 10° SW 11:42:55 16° W 11:44:46 10° NW
Cosmos 1328 Rocket 3.6 11:39:08 10° S 11:43:25 60° E 11:47:46 10° NNE
Cosmos 2100 Rocket 4.4 11:39:42 10° N 11:45:38 47° ENE 11:51:06 12° SSE
CZ-4 R/B 4.0 11:48:25 10° WSW 11:50:22 14° W 11:52:20 10° WNW
In-Cosmos 22 4.2 11:47:25 10° S 11:53:09 82° E 11:58:49 10° NNE
Cosmos 1470 Rocket 4.1 11:50:08 10° N 11:54:17 44° ENE 11:57:38 15° SE
Helios 1A 3.0 11:50:35 10° N 11:54:33 78° WNW 11:58:27 10° SSW
